Terminal Aerodrome Forecast
Issued by NWS Green Bay, WI

Home | Current Version | Previous Version | Text Only | Print | Product List | Glossary On
Versions: 1 2 3 4 5 6 7 8 9 10 11 12 13 14 15 16 17 18 19 20 21 22 23 24 25 26 27 28 29 30 31 32 33 34 35 36 37 38 39 40 41 42 43 44 45 46 47 48
027
FTUS43 KGRB 261122
TAFGRB
TAF
KGRB 261122Z 2612/2712 18005KT 1 1/2SM BR OVC004
      TEMPO 2612/2613 1/2SM FG OVC002
     FM261400 21009G16KT P6SM SCT025 BKN040
      TEMPO 2616/2618 3SM TSRA BR BKN025CB
     FM262100 18008G15KT P6SM SCT040 BKN250
     FM270200 15004KT 4SM BR SCT008 BKN250
      TEMPO 2708/2712 1 1/2SM BR BKN005=

USA.gov is the U.S. government's official web portal to all federal, state and local government web resources and services.